Previsão horária em Jurata

Hoje, 22 Junho, Terça-feira

Tempo Temperatura Precipitação Vento Pressão Humidade
00:00 +20°C° 0 mm 3 m/s 755 mmHg 88%
01:00 +20°C° 0 mm 2 m/s 754 mmHg 90%
02:00 +20°C° 0 mm 2 m/s 755 mmHg 90%
03:00 +20°C° 0 mm 2 m/s 755 mmHg 91%
04:00 +21°C° 0 mm 1 m/s 755 mmHg 91%
05:00 +22°C° 0.1 mm 1 m/s 755 mmHg 89%
06:00 +23°C° 0.1 mm 1 m/s 756 mmHg 87%
07:00 +23°C° 0.1 mm 2 m/s 756 mmHg 85%
08:00 +24°C° 0.2 mm 3 m/s 756 mmHg 81%
09:00 +25°C° 0.2 mm 3 m/s 757 mmHg 76%
10:00 +26°C° 0.2 mm 4 m/s 757 mmHg 71%
11:00 +26°C° 0.2 mm 5 m/s 757 mmHg 70%
12:00 +24°C° 0.2 mm 6 m/s 758 mmHg 69%
13:00 +24°C° 0.2 mm 6 m/s 758 mmHg 67%
14:00 +24°C° 0.1 mm 6 m/s 758 mmHg 67%
15:00 +23°C° 0.1 mm 6 m/s 758 mmHg 67%
16:00 +23°C° 0.1 mm 7 m/s 759 mmHg 67%
17:00 +22°C° 0 mm 7 m/s 759 mmHg 70%
18:00 +20°C° 0 mm 7 m/s 759 mmHg 72%
19:00 +18°C° 0 mm 7 m/s 760 mmHg 74%
20:00 +17°C° 0 mm 6 m/s 760 mmHg 75%
21:00 +16°C° 0 mm 6 m/s 760 mmHg 76%
22:00 +15°C° 0 mm 5 m/s 761 mmHg 77%
23:00 +15°C° 0 mm 5 m/s 761 mmHg 78%

Amanhã, 23 Junho, Quarta-feira

Tempo Temperatura Precipitação Vento Pressão Humidade
00:00 +14°C° 0 mm 5 m/s 761 mmHg 78%
01:00 +14°C° 0 mm 5 m/s 761 mmHg 79%
02:00 +14°C° 0 mm 5 m/s 761 mmHg 81%
03:00 +14°C° 0 mm 5 m/s 761 mmHg 84%
04:00 +13°C° 0 mm 4 m/s 761 mmHg 86%
05:00 +15°C° 0 mm 4 m/s 761 mmHg 80%
06:00 +18°C° 0 mm 4 m/s 762 mmHg 74%
07:00 +19°C° 0 mm 4 m/s 762 mmHg 68%
08:00 +20°C° 0 mm 4 m/s 762 mmHg 63%
09:00 +22°C° 0 mm 4 m/s 762 mmHg 58%
10:00 +23°C° 0 mm 4 m/s 762 mmHg 53%
11:00 +23°C° 0 mm 4 m/s 763 mmHg 53%
12:00 +25°C° 0 mm 4 m/s 763 mmHg 53%
13:00 +25°C° 0 mm 4 m/s 763 mmHg 53%
14:00 +25°C° 0 mm 4 m/s 763 mmHg 56%
15:00 +23°C° 0 mm 4 m/s 763 mmHg 59%
16:00 +22°C° 0 mm 4 m/s 763 mmHg 62%
17:00 +21°C° 0 mm 4 m/s 763 mmHg 66%
18:00 +20°C° 0 mm 3 m/s 763 mmHg 71%
19:00 +19°C° 0 mm 3 m/s 763 mmHg 75%
20:00 +18°C° 0 mm 3 m/s 763 mmHg 78%
21:00 +17°C° 0 mm 3 m/s 764 mmHg 80%
22:00 +16°C° 0 mm 2 m/s 764 mmHg 83%
23:00 +16°C° 0 mm 2 m/s 764 mmHg 84%

Depois de amanhã, 24 Junho, Quinta-feira

Tempo Temperatura Precipitação Vento Pressão Humidade
00:00 +15°C° 0 mm 2 m/s 764 mmHg 85%
01:00 +15°C° 0 mm 2 m/s 763 mmHg 86%
02:00 +15°C° 0 mm 2 m/s 763 mmHg 87%
03:00 +15°C° 0 mm 2 m/s 763 mmHg 87%
04:00 +15°C° 0 mm 2 m/s 763 mmHg 87%
05:00 +17°C° 0 mm 2 m/s 763 mmHg 80%
06:00 +19°C° 0 mm 1 m/s 763 mmHg 73%
07:00 +21°C° 0 mm 1 m/s 763 mmHg 66%
08:00 +22°C° 0 mm 1 m/s 763 mmHg 64%
09:00 +23°C° 0 mm 1 m/s 763 mmHg 61%
10:00 +24°C° 0 mm 1 m/s 763 mmHg 58%
11:00 +24°C° 0 mm 2 m/s 763 mmHg 58%
12:00 +24°C° 0 mm 2 m/s 763 mmHg 58%
13:00 +25°C° 0 mm 2 m/s 763 mmHg 58%
14:00 +24°C° 0 mm 2 m/s 763 mmHg 59%
15:00 +24°C° 0 mm 2 m/s 763 mmHg 61%
16:00 +24°C° 0 mm 2 m/s 763 mmHg 62%
17:00 +23°C° 0 mm 2 m/s 762 mmHg 66%
18:00 +21°C° 0 mm 2 m/s 762 mmHg 70%
19:00 +20°C° 0 mm 2 m/s 762 mmHg 74%
20:00 +19°C° 0 mm 2 m/s 762 mmHg 78%
21:00 +18°C° 0 mm 2 m/s 762 mmHg 82%
22:00 +17°C° 0 mm 2 m/s 762 mmHg 86%
23:00 +16°C° 0 mm 2 m/s 761 mmHg 87%

25 Junho, Sexta-feira

Tempo Temperatura Precipitação Vento Pressão Humidade
00:00 +16°C° 0 mm 3 m/s 761 mmHg 87%
01:00 +16°C° 0 mm 3 m/s 761 mmHg 88%
02:00 +16°C° 0 mm 3 m/s 760 mmHg 89%
03:00 +16°C° 0 mm 3 m/s 760 mmHg 89%
04:00 +16°C° 0 mm 3 m/s 760 mmHg 90%
05:00 +17°C° 0 mm 3 m/s 760 mmHg 86%
06:00 +18°C° 0 mm 3 m/s 760 mmHg 82%
07:00 +19°C° 0 mm 3 m/s 760 mmHg 78%
08:00 +19°C° 0.1 mm 3 m/s 760 mmHg 80%
09:00 +19°C° 0.1 mm 3 m/s 759 mmHg 83%
10:00 +19°C° 0.1 mm 3 m/s 759 mmHg 85%
11:00 +18°C° 0.3 mm 4 m/s 759 mmHg 88%
12:00 +18°C° 0.3 mm 4 m/s 759 mmHg 90%
13:00 +18°C° 0.3 mm 4 m/s 759 mmHg 93%
14:00 +17°C° 0.3 mm 5 m/s 759 mmHg 93%
15:00 +17°C° 0.3 mm 6 m/s 759 mmHg 93%
16:00 +17°C° 0.3 mm 7 m/s 758 mmHg 93%
17:00 +17°C° 0.2 mm 6 m/s 758 mmHg 94%
18:00 +16°C° 0.2 mm 6 m/s 758 mmHg 95%
19:00 +16°C° 0.2 mm 6 m/s 758 mmHg 96%
20:00 +16°C° 0.1 mm 6 m/s 758 mmHg 96%
21:00 +16°C° 0.1 mm 7 m/s 758 mmHg 96%
22:00 +16°C° 0.1 mm 7 m/s 758 mmHg 96%
23:00 +16°C° 0.5 mm 7 m/s 758 mmHg 96%

26 Junho, Sábado

Tempo Temperatura Precipitação Vento Pressão Humidade
00:00 +16°C° 0.5 mm 7 m/s 758 mmHg 96%
01:00 +16°C° 0.5 mm 7 m/s 757 mmHg 96%
02:00 +16°C° 0.3 mm 7 m/s 757 mmHg 96%
03:00 +16°C° 0.3 mm 7 m/s 757 mmHg 97%
04:00 +16°C° 0.3 mm 7 m/s 757 mmHg 97%
05:00 +16°C° 0.1 mm 7 m/s 757 mmHg 96%
06:00 +16°C° 0.1 mm 7 m/s 757 mmHg 96%
07:00 +16°C° 0.1 mm 7 m/s 757 mmHg 96%
08:00 +16°C° 0.3 mm 7 m/s 757 mmHg 96%
09:00 +16°C° 0.3 mm 7 m/s 757 mmHg 96%
10:00 +16°C° 0.3 mm 7 m/s 758 mmHg 96%
11:00 +16°C° 0.2 mm 7 m/s 758 mmHg 96%
12:00 +16°C° 0.2 mm 7 m/s 758 mmHg 95%
13:00 +16°C° 0.2 mm 7 m/s 758 mmHg 95%
14:00 +16°C° 0 mm 8 m/s 759 mmHg 94%
15:00 +16°C° 0 mm 8 m/s 759 mmHg 93%
16:00 +16°C° 0 mm 8 m/s 759 mmHg 92%
17:00 +16°C° 0 mm 7 m/s 759 mmHg 91%
18:00 +16°C° 0 mm 7 m/s 759 mmHg 90%
19:00 +16°C° 0 mm 7 m/s 759 mmHg 89%
20:00 +16°C° 0 mm 7 m/s 759 mmHg 90%
21:00 +16°C° 0 mm 7 m/s 759 mmHg 91%
22:00 +16°C° 0 mm 6 m/s 760 mmHg 91%
23:00 +16°C° 0.1 mm 6 m/s 760 mmHg 92%

27 Junho, Domingo

Tempo Temperatura Precipitação Vento Pressão Humidade
00:00 +16°C° 0.1 mm 6 m/s 760 mmHg 93%
01:00 +16°C° 0.1 mm 6 m/s 760 mmHg 93%
02:00 +16°C° 0 mm 6 m/s 760 mmHg 93%
03:00 +16°C° 0 mm 6 m/s 760 mmHg 93%
04:00 +16°C° 0 mm 6 m/s 760 mmHg 93%
05:00 +17°C° 0 mm 5 m/s 760 mmHg 90%
06:00 +17°C° 0 mm 5 m/s 760 mmHg 87%
07:00 +19°C° 0 mm 4 m/s 761 mmHg 84%
08:00 +20°C° 0 mm 4 m/s 761 mmHg 79%
09:00 +21°C° 0 mm 4 m/s 761 mmHg 73%
10:00 +22°C° 0 mm 3 m/s 761 mmHg 67%
11:00 +24°C° 0 mm 3 m/s 761 mmHg 66%
12:00 +24°C° 0 mm 3 m/s 761 mmHg 65%
13:00 +24°C° 0 mm 3 m/s 761 mmHg 64%
14:00 +24°C° 0.1 mm 3 m/s 761 mmHg 68%
15:00 +22°C° 0.1 mm 3 m/s 761 mmHg 72%
16:00 +23°C° 0.1 mm 2 m/s 761 mmHg 76%
17:00 +21°C° 0.1 mm 3 m/s 761 mmHg 81%
18:00 +20°C° 0.1 mm 3 m/s 761 mmHg 85%
19:00 +19°C° 0.1 mm 3 m/s 761 mmHg 90%
20:00 +19°C° 0 mm 3 m/s 762 mmHg 91%
21:00 +18°C° 0 mm 3 m/s 762 mmHg 93%
22:00 +17°C° 0 mm 2 m/s 762 mmHg 94%
23:00 +17°C° 0 mm 3 m/s 762 mmHg 94%
Mostrar mais

Necessitamos do seu Consentimento

A Meteoprog e os seus Fornecedores de Serviços podem armazenar e aceder a dados pessoais como cookies, identificadores do dispositivo ou outras tecnologias semelhantes existentes no seu dispositivo e processar estes dados para personalizar conteúdos e anúncios, assim como funcionalidades nas redes sociais e análise de tráfego.

  • Armazenar e/ou aceder a informações no seu dispositivo

    Os cookies, identificadores do dispositivo ou outras informações podem ser armazenados ou acedidos no seu dispositivo, para os fins acima indicados.

  • Anúncios e conteúdos personalizados, medição de anúncios e conteúdos, dados sobre o público-alvo e desenvolvimento de produtos

    Os anúncios e os conteúdos podem ser personalizados com base num perfil. Podem ser adicionados dados adicionais para uma maior personalização dos anúncios e dos conteúdos. A eficácia dos anúncios e dos conteúdos pode ser medida. Podem ser obtidas informações sobre o público que visualizou os anúncios e os conteúdos. Estes dados podem ser usados para desenvolver ou melhorar sistemas, softwares ou a experiência do utilizador.

Ao clicar em "Eu concordo”, permitirá o uso de cookies, identificadores do dispositivo e web beacons mencionados ou outras tecnologias semelhantes. As configurações do navegador do seu dispositivo podem ser alteradas.

Para certos fins, podem ser invocados interesses legítimos ao invés de consentimento. Pode ler mais informação sobre este assunto na nossa Política de Privacidade e Cookies.